Location: Bjelajci
(45.0103°N, 16.1758°E)
Time: 19:40:58
(UTC+00:00)

Cosmos 1975 - Pass Details

Date: 14 July 2020
Orbit: 542 x 561 km, 82.5° (Epoch: 05 August)

Event Time Altitude Azimuth Distance (km) Brightness Sun altitude
Exits shadow 02:09:50 - 177° (S) 2,178 5.5 -10.7°
Reaches altitude 10° 02:10:45 10° 175° (S) 1,809 5.1 -10.6°
Maximum altitude 02:14:40 61° 96° (E) 623 3.3 -10.1°
Drops below altitude 10° 02:18:36 10° 16° (NNE) 1,818 6.5 -9.6°
Sets 02:20:47 0° 13° (NNE) 2,714 7.4 -9.4°
